Location: Huntsville
(41.2590°N, 111.7678°W)
Time: 07:09:54
(UTC+00:00)

Envisat - Pass Details

Date: 03 December 2021
Orbit: 764 x 766 km, 98.2° (Epoch: 18 January)

Event Time Altitude Azimuth Distance (km) Brightness Sun altitude
Rises 12:50:28 0° 8° (N) 3,242 6.2 -19.2°
Reaches altitude 10° 12:52:49 10° 5° (N) 2,311 5.4 -18.8°
Maximum altitude 12:57:48 59° 287° (WNW) 884 3.0 -17.9°
Drops below altitude 10° 13:02:46 10° 209° (SSW) 2,294 5.3 -17.0°
Sets 13:05:05 0° 205° (SSW) 3,216 6.1 -16.6°
